DECAYED

OBJECT X, 51845 (Decayed)

Orbit data source: Space-Track

You're viewing an Uncataloged Satellite

Recently launched and/or uncataloged satellites may have evolving metadata. Metadata may include but not limited to: Owner, Maufacturer, Bus, Motor, and Mission.

OBJECT X, 51845 was a satellite owned by Guoxing (CN) in LEO that was launched on Sun, 27 Feb 2022 UTC via a CHANG ZHENG 8 launch vehicle from the Wenchang Satellite Launch Center (WSC). Unknown objects in Earth's orbit typically refer to objects detected orbiting the Earth but have not yet been identified or cataloged. These objects could be anything from previously untracked satellites, spent rocket stages, debris from satellite collisions, or even natural meteoroids temporarily captured by Earth's gravity. This object's orbit decayed before it could be identified.

Not visible in the next 10 days
Identifier
51845, 2022-019X
Orbit
Decayed
Last TLE update
2 months ago
Origin
Flag of CNGUOX (CN / PRC)
Manufacturer
WEINA/GUOX
Mission
Decayed Commercial Imaging
Bus & Motor
CUBESAT 6U, Unknown motor
Mass
20 kg wet, 20 kg dry
Launch date (UTC)
2022-02-27 (3 years ago)
Launch vehicle
CHANG ZHENG 8
Launch site
Wenchang Satellite Launch Center (WSC)
Object type
Unknown
Shape & HBR
Box, 0.3 m
Radar Cross Section
0.080 m², Medium (>0.1 m² and < 1m²)

Expand to show TLE details & history

TLE from 2 months ago
0 OBJECT X
1 51845U 22019X   25063.94877355  .12816835  25459-5  37373-3 0  9991
2 51845  97.3661 154.5538 0013317 276.3747  83.6038 16.44091342167915
Epoch: 2025-03-04T22:46Z
Definitive object data (Epoch: 2025-03-04T22:46:14.034Z)
Latitude
-0.00004°
Longitude
10.05047°
Altitude
157.241 km
Speed
7.812 km/s
True Right ascension
10h 18m 12s
True Declination
0° 00' 00"
Sunlit
Object was in full shadow at TLE epoch
Visualization observer readout
Visualization observer readout
Orbital elements
Apogee altitude
160.438 km
Perigee altitude
143.046 km
Semi-major axis
6,529.879 km
Eccentricity
0.0013317
Inclination
97.3661°
RAAN
154.5538°
Arg. of periapsis
276.3747°
True anomaly
83.75548°
Mean anomaly
83.6038°
Eccentric anomaly
83.67964°
Mean motion
4.11325 °/min
BSTAR
0.00037373
Orbital period
87.52 mins
Loading maneuver chart data...
Loading SW <> Apogee altitude chart data...
Loading historical data...
Loading historical data...
Loading historical data...
Loading historical data...
Loading historical data...
Loading historical data...
Loading historical data...

OBJECT X Visibility forecast

Observer location: undefined°, undefined°

This satellite is decayed
Span
Click to sort rows by Start time (UTC) header in descending order
Start Az.
Max El. time (UTC)
Max El. Az.
Max El.
End time (UTC)
End Az.
|